Regional Weather Roundup
Issued by NWS

Home | Current Version | Previous Version | Graphics & Text | Print | Product List | Glossary On
Versions: 1 2 3 4 5 6 7 8 9 10 11 12 13 14 15 16 17 18 19 20 21 22 23 24 25 26 27 28 29 30 31 32 33 34 35 36 37 38 39 40 41 42 43 44 45 46 47 48 49 50
000
ASUS43 KMKX 230925
RWRWI

WISCONSIN REGIONAL WEATHER ROUNDUP
NATIONAL WEATHER SERVICE MILWAUKEE/SULLIVAN WI
400 AM CDT THU OCT 23 2014

NOTE: "FAIR" INDICATES FEW OR NO CLOUDS BELOW 12,000 FEET WITH NO
SIGNIFICANT WEATHER AND/OR OBSTRUCTIONS TO VISIBILITY.

WIZ001-002-006>008-014>016-023>028-231000-
NORTHWEST WISCONSIN

CITY           SKY/WX    TMP DP  RH WIND       PRES   REMARKS
SUPERIOR ARPT  CLOUDY    53  42  65 SW5       29.98F
ASHLAND        CLOUDY    50  41  71 S9        30.02F
HAYWARD        CLOUDY    49  40  71 S10       30.02F
SIREN          DRIZZLE   52  41  66 S6        29.99F
CUMBERLAND     CLOUDY    46  41  81 SE7       30.02F
RICE LAKE      CLOUDY    48  42  79 SE9       30.05F
CHETEK         CLOUDY    47  44  87 SE9       30.04F
LADYSMITH      CLOUDY    46  43  88 SE6       30.08F
EAU CLAIRE     CLOUDY    49  42  77 S7        30.05F
MENOMONIE      DRIZZLE   49  44  82 E7        30.05S
NEW RICHMOND   CLOUDY    49  44  81 S6        30.01F
OSCEOLA        RAIN      50  47  91 S7        30.03S
$$

WIZ003>005-009-010-017-018-231000-
NORTH CENTRAL WISCONSIN

CITY           SKY/WX    TMP DP  RH WIND       PRES   REMARKS
MANITOWISH WTR CLOUDY    45  37  73 S8        30.07F
ARBOR VITAE    CLOUDY    47  37  69 S12       30.08F
WOODRUFF       CLOUDY    47  37  69 S12       30.08F
RHINELANDER    CLOUDY    46  35  65 S8        30.10F
EAGLE RIVER    CLOUDY    43  35  73 S5        30.09F
LAND O LAKES   CLOUDY    45  36  72 S7        30.09F
PHILLIPS       CLOUDY    45  39  79 S7        30.07F
TOMAHAWK       CLOUDY    42  37  80 CALM      30.11F
MEDFORD        LGT RAIN  42  37  82 SE8       30.10S
MERRILL        CLOUDY    42  38  85 CALM      30.12F
$$

WIZ029-030-035-036-043>047-231000-
CENTRAL WISCONSIN

CITY           SKY/WX    TMP DP  RH WIND       PRES   REMARKS
WAUSAU         CLOUDY    41  37  86 SE5       30.12F
MOSINEE        MOCLDY    37  37 100 SE7       30.14F WCI  32
MARSHFIELD     LGT RAIN  43  38  82 S8        30.11F
STEVENS POINT  MOCLDY    38  36  90 S3        30.15F
WAUPACA        PTCLDY    34  33  96 CALM      30.18F FOG
WAUTOMA        PTCLDY    30  28  92 CALM      30.18F
WISC RAPIDS    MOCLDY    40  37  89 SE5       30.15F
CAMP DOUGLAS   MOCLDY    41  41  99 E7        30.13F
$$

WIZ011>013-019>022-031-037>040-048>050-231000-
NORTHEAST WISCONSIN

CITY           SKY/WX    TMP DP  RH WIND       PRES   REMARKS
ANTIGO         CLOUDY    36  36  99 S9        30.14F FOG     WCI  29
SHAWANO          N/A     35  34  94 CALM      30.18F FOG
OCONTO         MOCLDY    32  32 100 CALM      30.19S VSB 1
STURGEON BAY   CLEAR     41  36  81 S8        30.20S
GREEN BAY      CLEAR     38  36  92 S5        30.20F WCI  34
MANITOWOC      CLEAR     38  37  97 S3        30.21F
APPLETON       CLEAR     36  36 100 S6        30.19S WCI  31
CLINTONVILLE   FOG       30  30 100 CALM      30.18F VSB 1
OSHKOSH        CLEAR     37  35  92 S3        30.18F
$$

WIZ032>034-041-042-053>061-231000-
SOUTHWEST WISCONSIN

CITY           SKY/WX    TMP DP  RH WIND       PRES   REMARKS
LA CROSSE      CLOUDY    51  44  77 SE6       30.09F
SPARTA         CLOUDY    51  36  55 S8        30.11F
VIROQUA        CLOUDY    47  38  68 S9        30.11F
BOSCOBEL       CLOUDY    46  39  76 CALM      30.15F
PRAIRIE DU CHI CLOUDY    49  38  65 E6        30.13F
PLATTEVILLE    PTCLDY    38  35  87 CALM      30.17R
$$

WIZ056-057-062-063-064-067-068-231000-
SOUTH CENTRAL WISCONSIN

CITY           SKY/WX    TMP DP  RH WIND       PRES   REMARKS
REEDSBURG      CLOUDY    44  36  75 S5        30.15S
BARABOO/DELLS  MOCLDY    43  35  73 S10       30.15S
LONE ROCK      MOCLDY    44  35  70 E7        30.17S
MINERAL POINT  PTCLDY    41  36  81 SE8       30.16R
MADISON        CLEAR     39  34  82 S7        30.19S WCI  34
MIDDLETON      CLEAR     39  35  85 CALM      30.18S
WATERTOWN      CLEAR     36  34  94 CALM      30.18F
MONROE         PTCLDY    39  36  87 S10       30.16F WCI  32
JANESVILLE     CLEAR     36  32  87 CALM      30.19F
$$

WIZ051-052-058>065-066-070>072-231000-
SOUTHEAST WISCONSIN

CITY           SKY/WX    TMP DP  RH WIND       PRES   REMARKS
MILWAUKEE      PTCLDY    35  31  85 CALM      30.21F
WAUKESHA       CLEAR     32  32 100 CALM      30.21F
MILWAUKEE/TIMM CLEAR     30  28  93 CALM      30.22F
RACINE         CLEAR     34  32  92 S5        30.23F WCI  30
BURLINGTON     FOG       26  26 100 CALM      30.21F VSB 3/4
KENOSHA        CLEAR     36  34  92 S7        30.22F WCI  30
FOND DU LAC    CLEAR     36  32  85 S5        30.19F WCI  32
SHEBOYGAN      CLEAR     29  27  92 CALM      30.20F
WEST BEND      CLEAR     32  30  93 S3        30.20F
JUNEAU         CLEAR     36  33  91 SE8       30.19F WCI  29
$$

LSZ147-162-231000-
LAKE SUPERIOR

STATION/POSITION TIME  TEMP    WIND        PRES    WAVE
                       AIR SEA DIR/SP/G            HT/PER
                 (UTC) (F)     (DEG/KT/KT) (MB)    (FT/S)
W MID LAKE BUOY  0850   48 46  140/ 14/ 17 1017.2F   1/ 3
DEVILS ISLAND    0900   51     180/  9/ 12 1016.6F
PORT WING        0800   54     180/  6/ 11 1015.9F
SAXON HARBOR     0800   53     200/  6/ 13 1016.6S
$$

LMZ867-665-643>646-231000-
LAKE MICHIGAN

STATION/POSITION TIME  TEMP    WIND        PRES    WAVE
                       AIR SEA DIR/SP/G            HT/PER
                 (UTC) (F)     (DEG/KT/KT) (MB)    (FT/S)
CHAMBERS ISLAND  0800   46     170/  4/ 10 1022.7F
N MID LAKE BUOY  0850   47 51  190/ 16/ 19 1023.1F   2/ 3
NORTHPORT PIER   0800   45     160/  4/  9 1023.0S
SISTER BAY       0842          170/  9/ 12   N/A
ALGOMA LAKESHORE 0841          240/ 13/ 14   N/A
KEWAUNEE LAKESHO 0900   39     280/  3/  4 1021.9F
SHEBOYGAN LAKESH 0900   41 51  220/  5/  5 1023.8S
PORT WASHINGTON  0840   39     260/  4/  6 1023.7F
ATWATER BUOY     0900   47     180/  8/ 10 1023.9F
MILWAUKEE LAKESH 0900   44     200/  5/  7   N/A
S MID LAKE BUOY  0850   50 54  170/ 12/ 14 1024.2F   2/ 4
KENOSHA   LAKESH 0900   45     200/  7/  9 1023.0F
$$

TC  - TEMPERATURE IN CELSIUS
VSB - VISIBILITY IN STATUTE MILES
WCI - WIND CHILL INDEX
HX  - HEAT INDEX




USA.gov is the U.S. government's official web portal to all federal, state and local government web resources and services.